Погода в Концебе

Украина / Одесская область     48°06′53″N   29°58′13″E
темп.,
°C
ветер,
м/с
пор.,
м/с
влажн.,
%
обл.,
%
осадки,
мм/ч
давл.,
гПа
погр.,
м
18 мая, вт
вт1800:00+13юв33835 0.0 100428
03:00+12ююв349299 0.1 100369
06:00+12ю359232 0.0 100298
09:00+17ююв467599 0.0 1002427
12:00+18ю7865100 3.7 10011195
15:00+14ююв2488100 5.0 1000560
18:00+14зюз578262 0.7 1000492
21:00+12юз379461 1.3 1000202
19 мая, ср
ср1900:00+11ю489479 0.0 1000404
03:00+11вюв359699 0.0 999287
06:00+10ссв3494100 0.1 1001210
09:00+13ссз258296 0.1 1003393
12:00+12зсз91390100 1.7 1004841
15:00+11зсз91591100 2.5 1006826
18:00+12сз81585100 0.2 1008750
21:00+10зсз61286100 0.3 1010441
20 мая, чт
чт2000:00+9з47885 0.0 1010131
03:00+8зсз378811 0.0 1010118
06:00+8з239196 0.0 101049
09:00+15з2273100 0.0 1010519
12:00+17ю2262100 0.3 10101119
15:00+15ю567475 1.0 1010502
18:00+13ююв4789100 0.4 1011352
21:00+12юв2296100 3.7 101165
21 мая, пт
пт2100:00+11всв2697100 0.4 1011238
03:00+11всв4996100 1.1 1011384
06:00+12всв51294100 0.4 1011533
09:00+12всв61391100 0.6 1012668
12:00+13всв6887100 0.1 1013737
15:00+14ссв6986100 0.1 1013681
18:00+12ссв61085100 0.0 1014584
21:00+11ссв61189100 0.3 1015496
22 мая, сб
сб2200:00+11с7129096 0.1 1015460
03:00+10с51189100 0.1 1014374
06:00+10с71290100 0.0 1014351
09:00+13с7127849 0.0 1014531
12:00+18ссв786520 0.0 1014911
15:00+20ссв566343 0.0 10141226
18:00+19с5774100 0.0 1014573
21:00+16с3883100 0.1 1015260